TimeEDT,TemperatureF,Dew PointF,Humidity,Sea Level PressureIn,VisibilityMPH,Wind Direction,Wind SpeedMPH,Gust SpeedMPH,PrecipitationIn,Events,Conditions,WindDirDegrees,DateUTC
12:56 AM,72.0,52.0,49,29.88,10.0,South,6.9,-,N/A,,Partly Cloudy,190,2014-05-07 04:56:00
1:56 AM,73.4,51.8,47,29.90,10.0,South,8.1,-,N/A,,Scattered Clouds,180,2014-05-07 05:56:00
2:56 AM,71.1,50.0,47,29.89,10.0,SSW,8.1,-,N/A,,Clear,200,2014-05-07 06:56:00
3:56 AM,70.0,50.0,49,29.89,10.0,SSW,6.9,-,N/A,,Clear,210,2014-05-07 07:56:00
4:56 AM,70.0,50.0,49,29.90,10.0,South,6.9,-,N/A,,Partly Cloudy,190,2014-05-07 08:56:00
5:56 AM,68.0,50.0,52,29.91,10.0,South,9.2,-,N/A,,Mostly Cloudy,190,2014-05-07 09:56:00
6:56 AM,66.0,51.1,59,29.94,10.0,South,6.9,-,N/A,,Scattered Clouds,190,2014-05-07 10:56:00
7:56 AM,68.0,52.0,56,29.95,10.0,South,8.1,-,N/A,,Scattered Clouds,170,2014-05-07 11:56:00
8:56 AM,72.0,55.0,55,29.97,10.0,SSW,13.8,-,N/A,,Overcast,200,2014-05-07 12:56:00
9:56 AM,75.0,55.9,51,29.98,10.0,SSW,15.0,19.6,N/A,,Overcast,210,2014-05-07 13:56:00
10:56 AM,77.0,57.9,52,29.97,10.0,SSW,11.5,-,N/A,,Overcast,200,2014-05-07 14:56:00
11:56 AM,80.1,57.9,47,29.97,10.0,SW,18.4,28.8,N/A,,Overcast,220,2014-05-07 15:56:00
12:56 PM,82.0,59.0,45,29.97,10.0,SW,10.4,18.4,N/A,,Mostly Cloudy,220,2014-05-07 16:56:00
1:56 PM,82.9,57.9,42,29.96,10.0,SW,15.0,25.3,N/A,,Mostly Cloudy,230,2014-05-07 17:56:00
2:56 PM,84.9,57.0,38,29.95,10.0,South,18.4,23.0,N/A,,Mostly Cloudy,180,2014-05-07 18:56:00
3:56 PM,86.0,54.0,33,29.93,10.0,WSW,16.1,-,N/A,,Mostly Cloudy,240,2014-05-07 19:56:00
4:56 PM,84.9,54.0,34,29.92,10.0,South,18.4,21.9,N/A,,Mostly Cloudy,180,2014-05-07 20:56:00
5:56 PM,84.9,52.0,32,29.91,10.0,South,17.3,23.0,N/A,,Mostly Cloudy,190,2014-05-07 21:56:00
6:56 PM,84.9,50.0,30,29.91,10.0,SSW,15.0,-,N/A,,Scattered Clouds,200,2014-05-07 22:56:00
7:56 PM,82.9,52.0,34,29.92,10.0,South,16.1,23.0,N/A,,Scattered Clouds,190,2014-05-07 23:56:00
8:56 PM,80.1,53.1,39,29.92,10.0,South,8.1,-,N/A,,Partly Cloudy,180,2014-05-08 00:56:00
9:56 PM,78.1,54.0,43,29.94,10.0,South,8.1,-,N/A,,Partly Cloudy,180,2014-05-08 01:56:00
10:56 PM,77.0,53.1,43,29.95,10.0,South,9.2,-,N/A,,Partly Cloudy,180,2014-05-08 02:56:00
11:56 PM,75.0,53.1,46,29.96,10.0,South,6.9,-,N/A,,Partly Cloudy,190,2014-05-08 03:56:00